STARLINK-34701

Last updated on Wed Aug 27 2025 00:02:05 GMT+0000 (Coordinated Universal Time)

1 64953U 25158X 25237.88690066 .00027820 00000+0 71254-3 0 9990 2 64953 97.6022 100.4675 0001523 95.7088 264.4331 15.39359576 5850
UTC large
Height (km)
Speed (km/s)
/
Latitude / Longitude
Inclination (degrees)
Orbital Period (minutes)
Azimuth
Elevation
Range (km)
Doppler Factor

Next 0 passes for location: London (51.5072 / 0.1276)

Sorry there are no passes over London.
STARLINK-34701